Terug naar catalogus

STARLINK-32283

ActiefCommunicatieVLEO
NORAD 62425·PAYLOAD·🇺🇸 United States

Gelanceerd Dec 23, 2024 vanaf Cape Canaveral Space Force Station

Loading…

Volgende Passages (komende 24 uur)

TLE

VersSource: CelesTrak SupGP

Epoch: Sep 15, 2026, 03:49 UTC

1 62425C 24249S   26258.15951389  .00040588  00000+0  14695-2 0  2583
2 62425  43.0029 320.4891 0001762 268.1920  21.6292 15.27570793    19

Volg STARLINK-32283 in realtime met AllMySat

Download on the App Store